• In Uzbekistan
  • List of Countries
  • For 7 days
  • Water Temperature
  • Satellite Maps
  • Weather Map
  • Weather Widgets
  • user-avatar
    Login

    Hourly Weather Cacapava

    Today, 16 December, Saturday

    Time Temperature Precipitation Wind Pressure Humidity
    00:00 +22°C° 0 mm 1 mps 711 mmHg 88%
    01:00 +21°C° 0 mm 1 mps 711 mmHg 88%
    02:00 +21°C° 0 mm 1 mps 711 mmHg 88%
    03:00 +21°C° 0 mm 1 mps 711 mmHg 90%
    04:00 +21°C° 0 mm 1 mps 711 mmHg 89%
    05:00 +21°C° 0 mm 1 mps 711 mmHg 88%
    06:00 +21°C° 0 mm 1 mps 712 mmHg 88%
    07:00 +24°C° 0 mm 1 mps 712 mmHg 77%
    08:00 +27°C° 0 mm 1 mps 713 mmHg 67%
    09:00 +30°C° 0 mm 1 mps 714 mmHg 57%
    10:00 +32°C° 0.1 mm 1 mps 713 mmHg 53%
    11:00 +33°C° 0.1 mm 1 mps 713 mmHg 49%
    12:00 +34°C° 0.1 mm 1 mps 713 mmHg 45%
    13:00 +34°C° 0.5 mm 1 mps 713 mmHg 47%
    14:00 +33°C° 0.5 mm 1 mps 712 mmHg 49%
    15:00 +34°C° 0.5 mm 2 mps 712 mmHg 51%
    16:00 +31°C° 0.7 mm 2 mps 711 mmHg 58%
    17:00 +29°C° 0.7 mm 2 mps 711 mmHg 65%
    18:00 +28°C° 0.7 mm 1 mps 711 mmHg 72%
    19:00 +26°C° 0.1 mm 1 mps 711 mmHg 77%
    20:00 +25°C° 0.1 mm 1 mps 711 mmHg 82%
    21:00 +23°C° 0.1 mm 1 mps 711 mmHg 87%
    22:00 +23°C° 0 mm 1 mps 711 mmHg 87%
    23:00 +22°C° 0 mm 1 mps 711 mmHg 88%

    Tomorrow, 17 December, Sunday

    Time Temperature Precipitation Wind Pressure Humidity
    00:00 +22°C° 0 mm 1 mps 711 mmHg 88%
    01:00 +22°C° 0 mm 1 mps 711 mmHg 88%
    02:00 +22°C° 0 mm 1 mps 711 mmHg 89%
    03:00 +22°C° 0 mm 1 mps 710 mmHg 89%
    04:00 +22°C° 0 mm 1 mps 711 mmHg 88%
    05:00 +22°C° 0 mm 1 mps 711 mmHg 87%
    06:00 +22°C° 0 mm 1 mps 711 mmHg 86%
    07:00 +25°C° 0 mm 2 mps 712 mmHg 77%
    08:00 +27°C° 0 mm 2 mps 712 mmHg 67%
    09:00 +30°C° 0 mm 3 mps 713 mmHg 57%
    10:00 +31°C° 0 mm 3 mps 713 mmHg 53%
    11:00 +34°C° 0 mm 2 mps 713 mmHg 49%
    12:00 +35°C° 0 mm 2 mps 714 mmHg 44%
    13:00 +34°C° 0.3 mm 2 mps 713 mmHg 48%
    14:00 +34°C° 0.3 mm 2 mps 713 mmHg 51%
    15:00 +32°C° 0.3 mm 1 mps 712 mmHg 54%
    16:00 +31°C° 0.9 mm 1 mps 712 mmHg 60%
    17:00 +30°C° 0.9 mm 1 mps 712 mmHg 66%
    18:00 +28°C° 0.9 mm 1 mps 712 mmHg 72%
    19:00 +27°C° 0.2 mm 1 mps 712 mmHg 76%
    20:00 +26°C° 0.2 mm 1 mps 713 mmHg 79%
    21:00 +24°C° 0.2 mm 1 mps 713 mmHg 83%
    22:00 +24°C° 0.2 mm 1 mps 713 mmHg 84%
    23:00 +23°C° 0.2 mm 1 mps 713 mmHg 86%

    Day after tomorrow, 18 December, Monday

    Time Temperature Precipitation Wind Pressure Humidity
    00:00 +23°C° 0.2 mm 1 mps 713 mmHg 87%
    01:00 +23°C° 0.1 mm 1 mps 712 mmHg 88%
    02:00 +22°C° 0.1 mm 1 mps 712 mmHg 88%
    03:00 +22°C° 0.1 mm 1 mps 711 mmHg 89%
    04:00 +22°C° 0 mm 1 mps 711 mmHg 88%
    05:00 +22°C° 0 mm 1 mps 712 mmHg 88%
    06:00 +23°C° 0 mm 1 mps 712 mmHg 87%
    07:00 +25°C° 0 mm 1 mps 713 mmHg 78%
    08:00 +28°C° 0 mm 2 mps 714 mmHg 68%
    09:00 +30°C° 0 mm 2 mps 714 mmHg 59%
    10:00 +31°C° 0.3 mm 2 mps 714 mmHg 58%
    11:00 +32°C° 0.3 mm 2 mps 714 mmHg 56%
    12:00 +32°C° 0.3 mm 1 mps 715 mmHg 55%
    13:00 +32°C° 1.5 mm 1 mps 714 mmHg 60%
    14:00 +31°C° 1.5 mm 2 mps 714 mmHg 64%
    15:00 +30°C° 1.5 mm 2 mps 713 mmHg 68%
    16:00 +29°C° 1.2 mm 1 mps 713 mmHg 74%
    17:00 +27°C° 1.2 mm 1 mps 713 mmHg 79%
    18:00 +26°C° 1.2 mm 1 mps 713 mmHg 85%
    19:00 +25°C° 0.5 mm 1 mps 713 mmHg 87%
    20:00 +24°C° 0.5 mm 1 mps 714 mmHg 90%
    21:00 +22°C° 0.5 mm 0 mps 714 mmHg 92%
    22:00 +21°C° 0.1 mm 0 mps 714 mmHg 92%
    23:00 +23°C° 0.1 mm 1 mps 714 mmHg 93%

    19 December, Tuesday

    Time Temperature Precipitation Wind Pressure Humidity
    00:00 +23°C° 0.1 mm 1 mps 714 mmHg 94%
    01:00 +22°C° 0 mm 1 mps 714 mmHg 94%
    02:00 +22°C° 0 mm 1 mps 713 mmHg 94%
    03:00 +22°C° 0 mm 1 mps 713 mmHg 94%
    04:00 +20°C° 0 mm 0 mps 713 mmHg 93%
    05:00 +20°C° 0 mm 0 mps 714 mmHg 92%
    06:00 +21°C° 0 mm 0 mps 714 mmHg 91%
    07:00 +23°C° 0 mm 0 mps 715 mmHg 81%
    08:00 +26°C° 0 mm 0 mps 715 mmHg 72%
    09:00 +30°C° 0 mm 1 mps 716 mmHg 62%
    10:00 +31°C° 0.3 mm 1 mps 715 mmHg 60%
    11:00 +32°C° 0.3 mm 1 mps 715 mmHg 57%
    12:00 +33°C° 0.3 mm 1 mps 715 mmHg 55%
    13:00 +32°C° 1.8 mm 1 mps 714 mmHg 60%
    14:00 +31°C° 1.8 mm 1 mps 713 mmHg 66%
    15:00 +30°C° 1.8 mm 2 mps 713 mmHg 71%
    16:00 +29°C° 1.9 mm 1 mps 713 mmHg 76%
    17:00 +28°C° 1.9 mm 1 mps 713 mmHg 80%
    18:00 +26°C° 1.9 mm 1 mps 712 mmHg 84%
    19:00 +25°C° 0.6 mm 1 mps 713 mmHg 87%
    20:00 +24°C° 0.6 mm 1 mps 713 mmHg 89%
    21:00 +23°C° 0.6 mm 1 mps 713 mmHg 91%
    22:00 +23°C° 0.2 mm 1 mps 713 mmHg 92%
    23:00 +21°C° 0.2 mm 0 mps 713 mmHg 93%

    20 December, Wednesday

    Time Temperature Precipitation Wind Pressure Humidity
    00:00 +20°C° 0.2 mm 0 mps 713 mmHg 94%
    01:00 +20°C° 0.5 mm 0 mps 713 mmHg 95%
    02:00 +20°C° 0.5 mm 0 mps 712 mmHg 95%
    03:00 +20°C° 0.5 mm 0 mps 712 mmHg 95%
    04:00 +20°C° 0.1 mm 0 mps 712 mmHg 94%
    05:00 +20°C° 0.1 mm 0 mps 712 mmHg 93%
    06:00 +22°C° 0.1 mm 1 mps 713 mmHg 92%
    07:00 +24°C° 0 mm 1 mps 713 mmHg 83%
    08:00 +26°C° 0 mm 1 mps 713 mmHg 75%
    09:00 +28°C° 0 mm 1 mps 714 mmHg 66%
    10:00 +29°C° 1 mm 1 mps 713 mmHg 64%
    11:00 +30°C° 1 mm 1 mps 713 mmHg 62%
    12:00 +31°C° 1 mm 1 mps 713 mmHg 59%
    13:00 +30°C° 1.9 mm 1 mps 712 mmHg 64%
    14:00 +29°C° 1.9 mm 1 mps 712 mmHg 69%
    15:00 +29°C° 1.9 mm 1 mps 711 mmHg 74%
    16:00 +27°C° 2.1 mm 1 mps 711 mmHg 80%
    17:00 +26°C° 2.1 mm 1 mps 711 mmHg 86%
    18:00 +23°C° 2.1 mm 0 mps 711 mmHg 92%
    19:00 +22°C° 1.3 mm 0 mps 711 mmHg 92%
    20:00 +22°C° 1.3 mm 0 mps 711 mmHg 92%
    21:00 +21°C° 1.3 mm 0 mps 711 mmHg 92%
    22:00 +21°C° 0.7 mm 0 mps 711 mmHg 92%
    23:00 +23°C° 0.7 mm 1 mps 711 mmHg 93%

    21 December, Thursday

    Time Temperature Precipitation Wind Pressure Humidity
    00:00 +22°C° 0.7 mm 1 mps 711 mmHg 93%
    01:00 +22°C° 0.3 mm 1 mps 710 mmHg 93%
    02:00 +22°C° 0.3 mm 1 mps 710 mmHg 92%
    03:00 +22°C° 0.3 mm 1 mps 709 mmHg 92%
    04:00 +22°C° 0 mm 1 mps 709 mmHg 92%
    05:00 +22°C° 0 mm 1 mps 709 mmHg 92%
    06:00 +22°C° 0 mm 1 mps 710 mmHg 91%
    07:00 +23°C° 0.1 mm 1 mps 710 mmHg 87%
    08:00 +25°C° 0.1 mm 2 mps 710 mmHg 82%
    09:00 +26°C° 0.1 mm 2 mps 711 mmHg 78%
    10:00 +26°C° 1.1 mm 2 mps 710 mmHg 79%
    11:00 +26°C° 1.1 mm 2 mps 710 mmHg 80%
    12:00 +26°C° 1.1 mm 2 mps 710 mmHg 81%
    13:00 +26°C° 2.1 mm 2 mps 710 mmHg 84%
    14:00 +25°C° 2.1 mm 1 mps 710 mmHg 87%
    15:00 +25°C° 2.1 mm 1 mps 709 mmHg 89%
    16:00 +24°C° 1.3 mm 1 mps 709 mmHg 91%
    17:00 +24°C° 1.3 mm 1 mps 709 mmHg 92%
    18:00 +23°C° 1.3 mm 1 mps 709 mmHg 93%
    19:00 +23°C° 0.9 mm 1 mps 710 mmHg 94%
    20:00 +22°C° 0.9 mm 1 mps 710 mmHg 95%
    21:00 +22°C° 0.9 mm 1 mps 710 mmHg 95%
    22:00 +22°C° 1 mm 1 mps 710 mmHg 95%
    23:00 +22°C° 1 mm 1 mps 710 mmHg 95%
    Show more